Regional Weather Roundup
Issued by NWS

Home | Current Version | Previous Version | Graphics & Text | Print | Product List | Glossary On
Versions: 1 2 3 4 5 6 7 8 9 10 11 12 13 14 15 16 17 18 19 20 21 22 23 24 25 26 27 28 29 30 31 32 33 34 35 36 37 38 39 40 41 42 43 44 45 46 47 48 49 50
495
ASUS44 KLIX 010801
RWRLA
LOUISIANA WEATHER ROUNDUP
NATIONAL WEATHER SERVICE NEW ORLEANS LA
200 AM CST SUN FEB 01 2015

NOTE: "FAIR" INDICATES FEW OR NO CLOUDS BELOW 12,000 FEET WITH NO
      SIGNIFICANT WEATHER AND/OR OBSTRUCTIONS TO VISIBILITY.
      SKY/WX - SKY CONDITION AND SIGNIFICANT WEATHER.
      TMP - AIR TEMPERATURE.    DP   - DEWPOINT TEMPERATURE.
      RH  - RELATIVE HUMIDITY.  PRES - PRESSURE.
      HX  - HEAT INDEX.         WCI  - WIND CHILL INDEX.

*  THESE STATIONS ARE NOT NWS OR FAA STATIONS AND ARE NOT UNDER
   NWS QUALITY CONTROL.

LAZ040-048-061>063-065-066-069-010900-
SOUTHEAST LOUISIANA

CITY           SKY/WX    TMP DP  RH WIND       PRES   REMARKS
N.O. AUDUBON     N/A     58  56  93 MISG        N/A
N.O. INTL ARPT CLOUDY    60  52  74 SE8       30.07F
N.O. LAKEFRONT CLOUDY    60  53  77 SE9       30.08F
N.O. DOWNTOWN* NOT AVBL
SLIDELL        CLOUDY    55  51  86 SE5       30.08F
BATON ROUGE    CLOUDY    56  50  80 E9        30.05F
BOOTHVILLE     CLOUDY    59  54  83 E8        30.07F
BELLE CHASSE   CLOUDY    61  53  75 SE10      30.07F
BOGALUSA*        N/A     55  48  80 SE5       30.10F
GALLIANO*      NOT AVBL
NEW ROADS*     NOT AVBL
GONZALES*      NOT AVBL
HAMMOND*       NOT AVBL
HOUMA*         CLOUDY    58  55  91 E5        30.05F
PORT FOURCHON* CLOUDY    66  61  82 SE14      30.08F

$$

LAZ041-044-053-054-010900-
SOUTHWEST LOUISIANA

CITY           SKY/WX    TMP DP  RH WIND       PRES   REMARKS
LAKE CHARLES   CLOUDY    58  54  86 SE14      29.97F
LAFAYETTE      LGT RAIN  57  54  89 VRB7      30.02F
PATTERSON      CLOUDY    61  54  77 E9        30.04F
SALT POINT       N/A     61  56  83 SE7       30.02F
NEW IBERIA     LGT RAIN  58  54  86 SE9       30.03F
CHENAULT AIRPK CLOUDY    58  55  89 SE13G18   29.99F

$$

LAZ027-028-010900-
CENTRAL LOUISIANA

CITY           SKY/WX    TMP DP  RH WIND       PRES   REMARKS
FORT POLK      CLOUDY    54  52  92 SE8       29.97F
ALEXANDRIA INT CLOUDY    54  51  90 SE12      29.99F
ALEXANDRIA     CLOUDY    55  50  83 SE6       30.02F

$$

LAZ001-002-010900-
NORTHWEST LOUISIANA

CITY           SKY/WX    TMP DP  RH WIND       PRES   REMARKS
SHREVEPORT     CLOUDY    56  49  77 S9        29.95S
BARKSDALE AFB  CLOUDY    55  49  80 SW10      29.95R
DTN SHREVEPORT LGT RAIN  54  48  80 S12       29.95S

$$

LAZ014-016-010900-
NORTHEAST LOUISIANA

CITY           SKY/WX    TMP DP  RH WIND       PRES   REMARKS
MONROE         RAIN      51  47  86 S6        30.02F
TALLULAH       LGT RAIN  53  47  79 S10       30.05F

$$




USA.gov is the U.S. government's official web portal to all federal, state and local government web resources and services.